This demonstration page uses our WeatherBlox Daily Observations layout. Learn more.

40.92945, -100.16068

Hourly Observations for May 12, 2018

Temp ( °F °C ) Dew Point ( °F °C ) Humidity (%) Winds ( mph kmh ) Pressure ( in mb ) Visibility ( mi km ) Precip ( " mm )
12:15 am 00:15 Cloudy with Mist and Fog 54 12.2 53 11.7 97 97 ENE 15 24 29.91 1013 2 3.21868 0 0
12:35 am 00:35 Cloudy with Mist and Fog 54 12.2 53 11.7 97 97 NE 21 33 29.83 1010 2 3.21868 0 0
12:55 am 00:55 Cloudy with Mist and Fog 54 12 53 11.5 97 97 ENE 15 24 29.85 1011 2 3.21868 0 0
1:15 am 01:15 Cloudy with Mist and Fog 54 12 53 11.5 97 97 NE 14 22 29.85 1011 2.5 4.02335 0 0
1:35 am 01:35 Cloudy with Mist and Fog 53 11.7 52 11.2 97 97 NE 15 24 29.88 1012 1.25 2.011675 0 0
1:55 am 01:55 Cloudy with Mist and Fog 53 11.5 52 11 97 97 NE 13 20 29.88 1012 0.75 1.207005 0 0
2:15 am 02:15 Cloudy with Mist and Fog 53 11.5 52 11 97 97 NE 20 31 29.85 1011 1 1.60934 0 0
2:35 am 02:35 Cloudy with Mist and Fog 53 11.5 52 11 97 97 NE 17 28 29.85 1011 1.25 2.011675 0 0
2:55 am 02:55 Cloudy with Mist and Fog 52 11.3 52 10.9 97 97 NE 14 22 29.85 1011 1.75 2.816345 0 0
3:15 am 03:15 Cloudy with Mist and Fog 52 11.3 51 10.8 97 97 NE 12 19 29.85 1011 4 6.43736 0 0
3:35 am 03:35 Cloudy 52 11.2 51 10.7 97 97 NE 13 20 29.88 1012 7 11.26538 0 0
3:55 am 03:55 Cloudy with Mist and Fog 52 11.1 51 10.5 96 96 NE 17 28 29.88 1012 4 6.43736 0 0
4:15 am 04:15 Cloudy with Mist and Fog 52 11 51 10.5 97 97 NNE 14 22 29.88 1012 3 4.82802 0 0
4:35 am 04:35 Cloudy with Light Rain 51 10.7 50 10.1 96 96 NE 15 24 29.88 1012 2.5 4.02335 0 0
4:55 am 04:55 Cloudy with Light Rain 51 10.3 49 9.7 96 96 NE 18 30 29.88 1012 3 4.82802 0 0
5:15 am 05:15 Cloudy with Mist and Fog 50 10.2 49 9.6 96 96 NE 15 24 29.88 1012 4 6.43736 0 0
5:35 am 05:35 Cloudy with Mist and Fog 50 10 49 9.5 97 97 NE 15 24 29.88 1012 4 6.43736 0 0
5:55 am 05:55 Cloudy with Mist and Fog 50 10 49 9.5 97 97 NE 13 20 29.91 1013 4 6.43736 0 0
6:15 am 06:15 Cloudy with Mist and Fog 50 10 49 9.3 95 95 NE 13 20 29.91 1013 5 8.0467 0 0
6:35 am 06:35 Cloudy with Mist and Fog 50 10 49 9.5 97 97 NE 10 17 29.91 1013 4 6.43736 0 0
6:55 am 06:55 Cloudy with Mist and Fog 50 10 49 9.3 95 95 NE 14 22 29.91 1013 2 3.21868 0 0
7:15 am 07:15 Cloudy with Mist and Fog 50 10 49 9.5 97 97 NE 10 17 29.94 1014 1.5 2.41401 0 0
7:35 am 07:35 Cloudy with Drizzle 50 9.9 49 9.4 97 97 NE 14 22 29.94 1014 1.5 2.41401 0.01 0.254
7:55 am 07:55 Cloudy with Drizzle 49 9.7 49 9.2 97 97 NNE 13 20 29.94 1014 2 3.21868 0.01 0.254
8:15 am 08:15 Cloudy with Mist and Fog 49 9.5 48 9 97 97 NNE 13 20 29.94 1014 3 4.82802 0 0
8:35 am 08:35 Cloudy with Mist and Fog 49 9.5 48 8.8 95 95 NE 12 19 30 1016 4 6.43736 0 0
8:55 am 08:55 Cloudy with Mist and Fog 49 9.6 48 9 96 96 NE 12 19 30 1016 5 8.0467 0.01 0.254
9:15 am 09:15 Cloudy with Mist and Fog 49 9.5 48 8.8 95 95 NE 12 19 30 1016 5 8.0467 0 0
9:35 am 09:35 Cloudy with Mist and Fog 49 9.7 48 9 95 95 NE 12 19 29.97 1015 5 8.0467 0 0
9:55 am 09:55 Cloudy with Mist and Fog 49 9.7 48 9 95 95 NE 12 19 29.97 1015 4 6.43736 0 0
10:15 am 10:15 Cloudy with Mist and Fog 50 9.9 49 9.2 95 95 NE 10 17 29.97 1015 4 6.43736 0 0
10:35 am 10:35 Cloudy with Mist and Fog 50 9.8 48 9.1 95 95 NNE 12 19 29.97 1015 4 6.43736 0 0
10:55 am 10:55 Cloudy with Mist and Fog 50 10 49 9.3 95 95 NNE 10 17 29.97 1015 3 4.82802 0 0
11:15 am 11:15 Cloudy with Mist and Fog 50 9.9 49 9.2 95 95 NNE 8 13 30.03 1017 3 4.82802 0 0
11:35 am 11:35 Cloudy with Mist and Fog 50 10 49 9.4 96 96 NNE 12 19 30 1016 3 4.82802 0 0
11:55 am 11:55 Cloudy with Mist and Fog 51 10.5 49 9.7 95 95 NNE 12 19 29.97 1015 4 6.43736 0.01 0.254
12:15 pm 12:15 Cloudy 51 10.7 50 9.8 94 94 NE 12 19 29.97 1015 7 11.26538 0 0
12:35 pm 12:35 Cloudy 52 10.9 49 9.6 92 92 NNE 12 19 29.97 1015 10 16.0934 0 0
12:55 pm 12:55 Cloudy 52 11.1 49 9.6 91 91 NE 9 15 29.97 1015 10 16.0934 0 0
1:15 pm 13:15 Cloudy 52 11.1 49 9.6 91 91 NNE 12 19 29.97 1015 10 16.0934 0 0
1:35 pm 13:35 Cloudy 52 11.3 49 9.6 89 89 NNE 14 22 29.97 1015 10 16.0934 0 0
1:55 pm 13:55 Cloudy 53 11.4 49 9.4 88 88 NNE 9 15 29.97 1015 10 16.0934 0 0
2:15 pm 14:15 Cloudy 53 11.5 49 9.5 88 88 N 10 17 30 1016 10 16.0934 0 0
2:35 pm 14:35 Cloudy 53 11.6 49 9.5 87 87 NE 9 15 30 1016 10 16.0934 0 0
2:55 pm 14:55 Cloudy 53 11.6 50 9.9 89 89 NE 8 13 30 1016 10 16.0934 0 0
3:15 pm 15:15 Cloudy 54 12 49 9.7 86 86 NNE 9 15 30 1016 10 16.0934 0 0
3:35 pm 15:35 Cloudy 54 12 50 9.8 87 87 NNE 9 15 30 1016 10 16.0934 0 0
3:55 pm 15:55 Cloudy 54 12.1 50 10 87 87 NNE 8 13 30 1016 10 16.0934 0 0
4:15 pm 16:15 Cloudy 54 12.1 50 9.9 87 87 NNE 8 13 30 1016 10 16.0934 0 0
4:35 pm 16:35 Cloudy 54 12.1 50 9.8 86 86 NNE 8 13 29.97 1015 10 16.0934 0 0
4:55 pm 16:55 Cloudy 54 12.3 50 10.1 87 87 N 10 17 29.97 1015 10 16.0934 0 0
5:15 pm 17:15 Cloudy 54 12.2 50 10.1 87 87 NNE 9 15 29.97 1015 10 16.0934 0 0
5:35 pm 17:35 Cloudy 55 12.5 50 10.1 85 85 NNE 7 11 30 1016 10 16.0934 0 0
5:55 pm 17:55 Cloudy 54 12.2 50 10 87 87 NNE 10 17 29.97 1015 10 16.0934 0 0
6:15 pm 18:15 Cloudy 55 12.6 50 10.1 85 85 NE 12 19 29.97 1015 10 16.0934 0 0
6:35 pm 18:35 Cloudy 55 12.5 51 10.3 87 87 NE 12 19 29.97 1015 10 16.0934 0 0
6:55 pm 18:55 Cloudy 55 12.5 51 10.4 87 87 NE 9 15 29.97 1015 10 16.0934 0 0
7:15 pm 19:15 Cloudy 54 12.3 50 10.1 87 87 ENE 8 13 29.97 1015 10 16.0934 0 0
7:35 pm 19:35 Cloudy 54 12 50 10 88 88 NE 9 15 29.97 1015 10 16.0934 0 0
7:55 pm 19:55 Cloudy 53 11.6 50 10 90 90 NE 10 17 29.97 1015 10 16.0934 0 0
8:15 pm 20:15 Cloudy 53 11.5 49 9.7 89 89 ENE 8 13 29.97 1015 10 16.0934 0 0
8:35 pm 20:35 Cloudy 52 11.1 50 9.8 92 92 NE 10 17 30 1016 10 16.0934 0 0
8:55 pm 20:55 Cloudy 51 10.8 49 9.7 93 93 NE 8 13 30 1016 10 16.0934 0 0
9:15 pm 21:15 Cloudy 51 10.7 49 9.6 93 93 NE 9 15 30 1016 7 11.26538 0 0
9:35 pm 21:35 Cloudy 51 10.5 49 9.5 94 94 NE 9 15 30 1016 10 16.0934 0 0
9:55 pm 21:55 Cloudy 51 10.5 49 9.5 94 94 NE 8 13 30 1016 10 16.0934 0 0
10:15 pm 22:15 Cloudy with Mist and Fog 51 10.4 49 9.5 94 94 NE 8 13 30 1016 5 8.0467 0 0
10:35 pm 22:35 Cloudy with Mist and Fog 51 10.3 49 9.5 95 95 NNE 9 15 30.03 1017 5 8.0467 0 0
10:55 pm 22:55 Cloudy with Mist and Fog 51 10.3 49 9.6 95 95 NE 7 11 30.03 1017 3 4.82802 0 0
11:15 pm 23:15 Cloudy with Mist and Fog 51 10.3 49 9.7 96 96 NNE 6 9 30.03 1017 4 6.43736 0 0
11:35 pm 23:35 Cloudy with Light Rain 51 10.3 49 9.7 96 96 NNE 7 11 30.03 1017 3 4.82802 0 0
11:55 pm 23:55 Cloudy 50 10.1 49 9.5 96 96 NNE 9 15 30.06 1018 7 11.26538 0 0

Powered by AerisWeather